STARLINK-1888 (47171 NORAD) Tracking and Keplerian Element Data
This shows tracking and keplerian element data for the satellite.
Feedback or suggestion? Click here.
Element | Value |
Catalog | 47171 |
Name | STARLINK-1888 |
Epoch Orbit | 175 |
Epoch Day | 62.91667824 |
Epoch Year | 2021 |
RAAN | 234.7553 |
Inclination | 53.0522 |
Eccentricity | 0.0001333 |
Argument of Perigee | 72.014 |
Mean Anonmoly | 121.0041 |
Mean Motion | 15.06369636 |
Decay Rate | 0.00047682 |
L1 | 1 47171U 20088BB 21062.91667824 .00047682 00000-0 32010-2 0 9997 |
L2 | 2 47171 53.0522 234.7553 0001333 72.0140 121.0041 15.06369636 1759 |
Live tracking and technical data element details for STARLINK-1888 (NORAD 47171). STARLINK-1888 can be tracked NOW for your location showing map with azimuth and elevation plus other details from your city location.
Track the satellite on the map from your city or location and see movement details for azimuth, elevation, latitude, longitude, range, height, and movement on the map or in text.
IsCatalogInMostPopularTable: catalog: 47171, numindb: 38
Update: records affected: 1
GetName: 47171 STARLINK-1888
Hit Count: updated at: Fri, 05 Mar 2021 06:27:48 GMT